Location: Abyssinia Baptist Church
(32.7840°N, 96.7578°W)
Time: 09:26:45
(UTC+00:00)

Cosmos 2297 Rocket - Visible Passes

Search period start: 27 June 2022 00:00
Search period end: 07 July 2022 00:00
Orbit: 840 x 842 km, 71.0° (Epoch: 26 June)

Date Brightness Start Highest point End Pass type
(mag) Time Alt. Az. Time Alt. Az. Time Alt. Az.
27 Jun 3.7 08:57:27 18° SE 09:00:25 28° ESE 09:05:08 10° NE visible
27 Jun 3.1 10:39:17 10° SW 10:44:16 32° WNW 10:49:18 10° N visible
28 Jun 3.8 08:43:02 20° SE 08:45:16 26° ESE 08:49:53 10° NE visible
28 Jun 3.1 10:24:52 14° WSW 10:29:04 34° WNW 10:34:11 10° N visible
29 Jun 3.8 08:28:34 22° SE 08:30:08 25° ESE 08:34:36 10° NE visible
29 Jun 3.0 10:10:23 18° WSW 10:13:54 36° WNW 10:19:05 10° N visible
30 Jun 3.8 08:14:03 22° ESE 08:15:00 23° E 08:19:20 10° NE visible
30 Jun 2.9 09:55:52 23° WSW 09:58:43 38° WNW 10:03:58 10° N visible
01 Jul 3.9 07:59:29 21° ESE 07:59:53 22° E 08:04:04 10° NE visible
01 Jul 2.8 09:41:18 28° WSW 09:43:33 40° WNW 09:48:51 10° N visible
02 Jul 4.0 07:44:53 20° E 07:44:53 20° E 07:48:46 10° NE visible
02 Jul 2.8 09:26:42 34° WSW 09:28:23 43° WNW 09:33:44 10° N visible
03 Jul 4.1 07:30:15 19° E 07:30:15 19° E 07:33:28 10° ENE visible
03 Jul 2.6 09:12:03 40° W 09:13:12 46° WNW 09:18:37 10° N visible
04 Jul 4.3 07:15:34 17° E 07:15:34 17° E 07:18:08 10° ENE visible
04 Jul 2.5 08:57:22 46° W 08:58:02 49° WNW 09:03:30 10° N visible
05 Jul 4.4 07:00:51 15° E 07:00:51 15° E 07:02:47 10° ENE visible
05 Jul 2.5 08:42:40 51° WNW 08:42:52 52° WNW 08:48:22 10° N visible
06 Jul 4.5 06:46:07 13° ENE 06:46:07 13° ENE 06:47:26 10° ENE visible
06 Jul 2.5 08:27:55 55° WNW 08:27:55 55° WNW 08:33:14 10° N visible
